Weather History for KPRX - November, 2013

Change the Weather History Date:

Saturday, November 16, 2013

  Actual Average Record
Temperature  
Mean Temperature 65 °F -  
Max Temperature 73 °F 62 °F 75 °F (2003)
Min Temperature 57 °F 43 °F 15 °F (2008)
Growing Degree Days 15 (Base 50)    
Moisture  
Dew Point 58 °F    
Average Humidity 76    
Maximum Humidity 88    
Minimum Humidity 64    
Precipitation  
Precipitation 0.00 in - - ()
Sea Level Pressure  
Sea Level Pressure 29.82 in    
Wind  
Wind Speed 12 mph (South)    
Max Wind Speed 22 mph    
Max Gust Speed 24 mph    
Visibility 10 miles    
Events      
Averages and records for this station are not official NWS values.
T = Trace of Precipitation, MM = Missing Value Source: NWS Daily Summary

Daily Weather History Graph

Daily Weather History Graph

Search for Another Location

Airport or City:

Trip Planner

Search our weather history database for the weather conditions in past years. The results will help you decide how hot, cold, wet, or windy it might be!

Date:

Astronomy

Nov. 16, 2013 Rise Set
Actual Time 6:54 AM CST 5:18 PM CST
Civil Twilight 6:28 AM CST 5:44 PM CST
Nautical Twilight 5:58 AM CST 6:14 PM CST
Astronomical Twilight 5:28 AM CST 6:44 PM CST
Moon 4:52 PM CST (11/16) 5:54 AM CST (11/16)
Length of Visible Light 11h 16m
Length of Day
10h 23m
Waxing Gibbous, 99% of the Moon is Illuminated
Nov 16
Waxing Gibbous
Nov 17
Full
Nov 25
Last Quarter
Dec 2
New
Dec 9
First Quarter

Hourly Weather History & Observations

Time (CST) Temp. Dew Point Humidity Pressure Visibility Wind Dir Wind Speed Gust Speed Precip Events Conditions
12:15 AM 57.2 °F 51.8 °F 82% 29.91 in 8.0 mi SE 12.7 mph - N/A   Clear
12:35 AM 57.2 °F 51.8 °F 82% 29.91 in 6.0 mi SE 11.5 mph - N/A   Clear
12:55 AM 57.2 °F 51.8 °F 82% 29.90 in 7.0 mi SE 12.7 mph - N/A   Clear
1:15 AM 57.2 °F 51.8 °F 82% 29.90 in 7.0 mi SE 12.7 mph - N/A   Scattered Clouds
1:35 AM 57.2 °F 51.8 °F 82% 29.89 in 8.0 mi SSE 10.4 mph - N/A   Scattered Clouds
1:55 AM 57.2 °F 51.8 °F 82% 29.90 in 7.0 mi SSE 10.4 mph - N/A   Partly Cloudy
2:15 AM 57.2 °F 51.8 °F 82% 29.88 in 7.0 mi SE 11.5 mph - N/A   Partly Cloudy
2:35 AM 57.2 °F 53.6 °F 88% 29.88 in 6.0 mi SSE 9.2 mph - N/A   Mostly Cloudy
2:55 AM 57.2 °F 53.6 °F 88% 29.88 in 8.0 mi SSE 10.4 mph - N/A   Overcast
3:15 AM 59.0 °F 53.6 °F 82% 29.88 in 10.0 mi SSE 9.2 mph - N/A   Overcast
3:35 AM 60.8 °F 55.4 °F 82% 29.88 in 10.0 mi SSE 9.2 mph - N/A   Overcast
3:55 AM 60.8 °F 55.4 °F 82% 29.88 in 10.0 mi SSE 8.1 mph - N/A   Overcast
4:15 AM 60.8 °F 55.4 °F 82% 29.88 in 10.0 mi South 6.9 mph - N/A   Overcast
4:35 AM 60.8 °F 55.4 °F 82% 29.87 in 10.0 mi SSE 9.2 mph - N/A   Overcast
4:55 AM 60.8 °F 55.4 °F 82% 29.88 in 10.0 mi SSE 8.1 mph - N/A   Overcast
5:15 AM 60.8 °F 55.4 °F 82% 29.87 in 10.0 mi SSE 9.2 mph - N/A   Overcast
5:35 AM 60.8 °F 55.4 °F 82% 29.88 in 10.0 mi SSE 8.1 mph - N/A   Overcast
5:55 AM 60.8 °F 55.4 °F 82% 29.88 in 10.0 mi SE 8.1 mph - N/A   Overcast
6:15 AM 60.8 °F 55.4 °F 82% 29.87 in 10.0 mi SSE 8.1 mph - N/A   Overcast
6:35 AM 60.8 °F 55.4 °F 82% 29.87 in 10.0 mi SE 10.4 mph - N/A   Overcast
6:55 AM 60.8 °F 55.4 °F 82% 29.86 in 10.0 mi SSE 11.5 mph - N/A   Overcast
7:15 AM 60.8 °F 55.4 °F 82% 29.87 in 10.0 mi SSE 10.4 mph - N/A   Overcast
7:35 AM 62.6 °F 55.4 °F 77% 29.87 in 10.0 mi SSE 11.5 mph - N/A   Overcast
7:55 AM 62.6 °F 55.4 °F 77% 29.87 in 10.0 mi SSE 15.0 mph - N/A   Overcast
8:15 AM 62.6 °F 57.2 °F 82% 29.87 in 10.0 mi SSE 12.7 mph - N/A   Overcast
8:35 AM 62.6 °F 57.2 °F 82% 29.88 in 10.0 mi SSE 11.5 mph - N/A   Overcast
8:55 AM 64.4 °F 57.2 °F 77% 29.88 in 10.0 mi SSE 11.5 mph - N/A   Overcast
9:15 AM 64.4 °F 57.2 °F 77% 29.89 in 10.0 mi South 9.2 mph - N/A   Overcast
9:35 AM 64.4 °F 57.2 °F 77% 29.90 in 10.0 mi South 8.1 mph - N/A   Overcast
9:55 AM 66.2 °F 57.2 °F 73% 29.91 in 10.0 mi SSW 9.2 mph - N/A   Overcast
10:15 AM 66.2 °F 57.2 °F 73% 29.90 in 10.0 mi South 6.9 mph - N/A   Overcast
10:35 AM 66.2 °F 59.0 °F 78% 29.88 in 10.0 mi South 10.4 mph - N/A   Overcast
10:55 AM 68.0 °F 59.0 °F 73% 29.88 in 10.0 mi SSW 12.7 mph - N/A   Overcast
11:15 AM 68.0 °F 59.0 °F 73% 29.88 in 10.0 mi SSW 11.5 mph - N/A   Overcast
11:35 AM 69.8 °F 59.0 °F 68% 29.87 in 10.0 mi SSW 15.0 mph 23.0 mph N/A   Overcast
11:55 AM 69.8 °F 57.2 °F 64% 29.85 in 10.0 mi SSW 18.4 mph 21.9 mph N/A   Overcast
12:15 PM 71.6 °F 59.0 °F 64% 29.83 in 10.0 mi SSW 20.7 mph 24.2 mph N/A   Overcast
12:35 PM 69.8 °F 59.0 °F 68% 29.82 in 10.0 mi SSW 15.0 mph 21.9 mph N/A   Overcast
12:55 PM 69.8 °F 59.0 °F 68% 29.80 in 10.0 mi South 15.0 mph - N/A   Overcast
1:15 PM 71.6 °F 59.0 °F 64% 29.79 in 10.0 mi South 16.1 mph 20.7 mph N/A   Overcast
1:35 PM 71.6 °F 59.0 °F 64% 29.77 in 10.0 mi South 12.7 mph 21.9 mph N/A   Overcast
1:55 PM 71.6 °F 59.0 °F 64% 29.76 in 10.0 mi South 18.4 mph - N/A   Overcast
2:15 PM 71.6 °F 59.0 °F 64% 29.76 in 10.0 mi South 15.0 mph - N/A   Overcast
2:35 PM 71.6 °F 59.0 °F 64% 29.75 in 10.0 mi South 17.3 mph 20.7 mph N/A   Overcast
2:55 PM 71.6 °F 59.0 °F 64% 29.74 in 10.0 mi South 16.1 mph - N/A   Overcast
3:15 PM 71.6 °F 59.0 °F 64% 29.73 in 10.0 mi South 13.8 mph 21.9 mph N/A   Mostly Cloudy
3:35 PM 71.6 °F 59.0 °F 64% 29.74 in 10.0 mi South 17.3 mph 21.9 mph N/A   Overcast
3:55 PM 71.6 °F 59.0 °F 64% 29.74 in 10.0 mi South 18.4 mph 21.9 mph N/A   Mostly Cloudy
4:15 PM 71.6 °F 60.8 °F 69% 29.74 in 10.0 mi South 12.7 mph 19.6 mph N/A   Overcast
4:35 PM 71.6 °F 60.8 °F 69% 29.74 in 10.0 mi South 12.7 mph 18.4 mph N/A   Overcast
4:55 PM 71.6 °F 60.8 °F 69% 29.74 in 10.0 mi South 13.8 mph 19.6 mph N/A   Overcast
5:15 PM 71.6 °F 60.8 °F 69% 29.74 in 10.0 mi South 15.0 mph - N/A   Overcast
5:35 PM 71.6 °F 62.6 °F 73% 29.73 in 10.0 mi South 15.0 mph 24.2 mph N/A   Mostly Cloudy
5:55 PM 69.8 °F 60.8 °F 73% 29.74 in 10.0 mi SSE 11.5 mph - N/A   Mostly Cloudy
6:15 PM 69.8 °F 62.6 °F 78% 29.74 in 10.0 mi SSE 13.8 mph - N/A   Overcast
6:35 PM 69.8 °F 62.6 °F 78% 29.74 in 10.0 mi SSE 13.8 mph - N/A   Overcast
6:55 PM 69.8 °F 62.6 °F 78% 29.74 in 10.0 mi SSE 12.7 mph - N/A   Overcast
7:15 PM 69.8 °F 62.6 °F 78% 29.74 in 10.0 mi SSE 12.7 mph - N/A   Mostly Cloudy
7:35 PM 69.8 °F 62.6 °F 78% 29.73 in 10.0 mi SSE 12.7 mph - N/A   Scattered Clouds
7:55 PM 69.8 °F 62.6 °F 78% 29.74 in 10.0 mi SSE 11.5 mph - N/A   Mostly Cloudy
8:15 PM 69.8 °F 62.6 °F 78% 29.74 in 10.0 mi SSE 11.5 mph - N/A   Mostly Cloudy
8:35 PM 69.8 °F 62.6 °F 78% 29.74 in 10.0 mi SSE 9.2 mph - N/A   Mostly Cloudy
8:55 PM 69.8 °F 62.6 °F 78% 29.74 in 10.0 mi SSE 11.5 mph - N/A   Overcast
9:15 PM 69.8 °F 62.6 °F 78% 29.75 in 10.0 mi South 10.4 mph - N/A   Overcast
9:35 PM 69.8 °F 62.6 °F 78% 29.75 in 10.0 mi South 12.7 mph - N/A   Overcast
9:55 PM 71.6 °F 64.4 °F 78% 29.75 in 10.0 mi South 12.7 mph - N/A   Overcast
10:15 PM 71.6 °F 64.4 °F 78% 29.75 in 10.0 mi South 15.0 mph - N/A   Overcast
10:35 PM 73.4 °F 64.4 °F 73% 29.75 in 10.0 mi South 17.3 mph 23.0 mph N/A   Overcast
10:55 PM 73.4 °F 64.4 °F 73% 29.75 in 10.0 mi South 21.9 mph - N/A   Overcast
11:15 PM 73.4 °F 64.4 °F 73% 29.75 in 10.0 mi South 17.3 mph 23.0 mph N/A   Mostly Cloudy
11:35 PM 73.4 °F 64.4 °F 73% 29.75 in 10.0 mi South 20.7 mph - N/A   Mostly Cloudy
11:55 PM 73.4 °F 64.4 °F 73% 29.75 in 10.0 mi South 17.3 mph - N/A   Mostly Cloudy